STARLINK-34185

Last updated on Sat Jul 19 2025 00:02:08 GMT+0000 (Coordinated Universal Time)

1 64744U 25144W 25199.58335648 -.01534858 00000+0 -13067-1 0 9992 2 64744 53.1585 192.1502 0001096 66.0463 56.7594 15.71644876 3812
UTC large
Height (km)
Speed (km/s)
/
Latitude / Longitude
Inclination (degrees)
Orbital Period (minutes)
Azimuth
Elevation
Range (km)
Doppler Factor

Next 0 passes for location: London (51.5072 / 0.1276)

Sorry there are no passes over London.